Theta_e
342 342 342 341 340 337 336 335 334 335 334 333 332 331 331 334 330 330 331 330 333 333 332 331 330 331 332 333 331 331 331 332 333 332 331 332 332 333 332 332 332 331 331 330 331 331 330 328 328 328 327 326 326 325 323 321 322 322 322 319 318 318 317 316 316 316 319 322 321 321 322 323 321 323 322 323 324 326 331 333 336 337 340 343 345
342 342 342 341 340 338 337 335 335 335 334 333 333 332 332 333 333 331 330 331 332 333 331 331 331 332 332 331 332 331 332 332 333 332 332 331 332 335 334 331 329 330 327 327 328 330 329 326 327 327 327 327 326 324 322 321 321 319 318 320 317 318 319 317 318 318 316 320 320 321 321 323 320 323 321 321 322 325 326 329 334 337 340 343 344
343 342 341 340 339 338 337 335 335 334 333 333 333 333 333 333 334 333 332 332 332 332 332 331 332 332 331 331 331 331 332 332 333 333 332 331 331 331 333 330 329 329 327 327 327 327 326 327 328 327 328 326 325 324 323 322 322 320 319 320 319 319 319 319 318 317 317 318 320 319 320 321 320 320 322 323 324 325 325 327 331 335 338 341 343
343 341 340 339 338 337 336 336 335 334 333 334 333 334 335 335 335 333 332 332 332 333 334 333 332 332 331 331 330 330 331 332 333 333 333 332 331 331 330 329 329 329 329 328 327 326 327 326 327 327 327 325 325 323 323 322 321 321 320 319 319 319 319 319 319 319 319 317 319 319 320 319 320 322 323 324 323 324 326 329 331 333 335 337 339
343 341 340 339 338 337 336 335 335 334 334 335 334 335 335 335 334 333 332 331 332 331 332 333 332 331 332 330 330 331 331 332 333 333 333 333 332 331 330 329 327 327 328 328 331 328 327 327 327 326 325 324 324 323 322 321 322 321 320 319 319 319 320 320 319 320 320 318 319 321 321 320 321 321 322 321 323 324 327 328 330 332 333 335 337
343 341 340 339 338 337 336 336 335 335 335 335 335 335 334 333 330 332 331 329 328 328 328 329 332 329 329 330 330 330 331 331 332 333 333 333 332 330 330 328 326 326 326 326 326 327 327 326 327 326 324 324 324 323 322 322 321 320 320 320 320 320 319 319 320 321 321 320 319 318 319 318 318 319 321 322 322 322 324 326 329 332 333 333 335
342 341 340 338 338 337 337 337 336 336 336 334 333 333 332 331 329 327 330 328 328 326 326 325 329 328 329 329 330 330 330 330 331 332 332 332 331 329 327 326 326 326 326 327 327 327 327 327 327 326 324 324 323 322 321 321 322 321 322 320 321 319 319 319 320 321 321 320 319 319 317 318 319 318 321 323 323 323 323 324 325 329 332 333 333
341 340 339 338 338 338 337 337 336 335 335 334 332 331 331 329 327 328 331 328 327 326 326 326 325 329 327 326 327 328 327 326 326 328 331 332 331 329 328 327 327 326 326 327 327 328 327 327 326 325 325 324 323 322 321 321 321 321 322 322 321 320 319 320 322 322 321 319 318 317 317 316 318 320 321 321 320 321 324 324 321 323 326 330 333
340 339 339 338 338 338 338 337 336 335 335 332 331 331 330 329 328 329 331 329 332 328 327 327 325 327 326 326 326 327 328 328 328 328 331 332 331 330 328 328 327 326 326 326 326 326 326 326 326 326 328 331 324 322 321 321 322 321 321 321 321 320 320 321 322 321 320 318 317 317 316 316 317 317 318 318 318 318 321 322 322 324 326 327 330
340 339 338 337 338 337 337 337 335 334 333 332 331 331 330 329 328 328 329 329 329 330 328 327 326 325 325 325 325 328 329 330 334 333 334 334 330 330 329 328 328 327 328 326 325 325 325 325 328 334 330 328 325 322 319 317 316 321 323 321 321 319 320 322 322 321 319 316 316 316 315 315 316 317 318 319 321 322 321 322 320 322 324 324 327
339 338 337 338 338 337 335 335 335 333 333 332 330 330 329 329 329 328 328 328 329 329 330 327 328 327 326 325 325 328 328 329 330 328 330 332 332 329 329 329 329 328 327 325 324 325 324 324 323 330 332 331 331 329 324 320 319 316 315 317 319 322 321 321 322 321 319 317 317 316 316 315 316 318 319 320 321 321 321 322 321 321 321 320 319
338 338 338 338 338 337 336 335 334 333 332 331 330 329 328 328 328 328 328 328 329 330 329 328 327 326 327 327 326 326 327 331 325 325 328 328 331 332 330 330 330 328 327 325 324 324 324 324 325 327 327 328 328 327 327 325 321 319 316 315 315 315 317 322 322 320 318 316 315 316 316 316 317 319 320 320 320 321 321 321 321 320 319 319 320
338 338 338 337 337 337 336 334 333 332 331 331 330 329 329 328 328 328 328 329 329 329 329 329 328 328 328 327 327 327 327 329 324 324 324 325 327 330 328 328 328 327 326 325 324 324 324 324 325 326 327 331 332 328 325 325 322 319 316 315 315 315 316 317 317 321 321 317 316 316 317 318 318 320 322 322 322 320 321 320 320 321 321 320 320
337 337 335 335 336 335 335 334 332 331 331 330 330 329 329 329 329 329 330 330 330 329 329 329 329 328 328 327 327 327 327 328 324 322 321 322 323 327 327 326 326 326 326 325 325 325 324 324 323 324 325 325 324 323 322 322 322 323 322 322 323 323 319 317 316 315 317 319 318 316 319 321 320 321 324 324 322 320 320 319 320 320 320 320 322
335 334 332 331 332 332 332 331 331 330 330 329 329 329 329 329 329 329 330 329 329 329 329 328 329 329 329 329 328 327 328 325 320 320 318 317 319 325 324 326 326 325 325 326 325 325 325 325 324 324 324 323 324 324 322 322 320 320 319 321 321 321 320 320 320 320 321 320 320 320 321 322 322 322 323 323 322 322 322 321 321 321 322 324 324
332 331 330 330 332 331 331 330 330 329 329 329 329 328 328 329 329 329 330 329 330 330 330 329 329 329 329 329 328 326 326 323 319 318 317 316 321 325 323 323 323 324 324 325 325 325 325 325 325 324 324 323 321 318 320 321 317 317 318 318 317 317 318 318 318 320 321 321 322 323 323 324 318 321 321 320 320 320 321 323 323 322 320 319 318
332 331 330 331 332 332 331 330 330 329 329 329 329 329 329 329 329 330 330 330 329 329 329 329 330 329 329 328 327 326 326 323 316 315 315 316 319 322 321 323 323 323 323 324 325 325 325 325 325 325 324 323 320 316 316 316 315 315 314 314 315 316 317 320 319 317 316 314 313 313 313 313 314 315 314 314 319 319 320 319 318 319 318 316 317
333 333 332 333 334 333 332 332 331 331 330 330 330 330 330 328 329 332 331 330 330 330 329 328 328 329 328 327 327 326 326 323 314 312 313 315 321 321 322 322 322 322 323 323 324 323 324 331 333 325 321 320 317 312 313 313 312 311 312 313 314 316 317 320 322 322 317 316 316 317 317 317 317 317 317 316 315 316 319 316 319 320 317 317 316
329 332 334 335 335 335 334 333 332 331 331 331 332 330 329 330 332 333 333 333 332 332 332 330 328 328 328 328 332 330 326 322 311 311 312 313 320 323 324 323 320 321 321 321 320 320 319 322 326 324 319 318 312 310 308 308 311 311 312 314 316 316 318 320 319 319 319 320 322 323 322 320 323 322 323 317 316 318 321 321 321 320 318 318 318
329 332 336 337 337 336 335 334 333 332 332 332 331 331 332 331 331 331 332 333 331 329 329 327 326 326 327 326 327 330 327 325 317 309 308 310 316 324 323 321 321 319 316 318 319 316 314 315 319 317 314 311 307 305 305 307 310 311 315 316 316 316 320 319 318 317 318 320 320 321 321 321 321 321 320 320 321 324 321 322 322 321 319 318 319
330 334 337 337 337 337 336 335 334 333 332 332 332 331 331 331 330 329 330 328 326 325 325 325 325 325 325 326 327 327 327 325 321 308 307 309 315 319 319 318 316 315 315 315 314 313 313 314 315 318 314 310 305 302 302 304 307 312 314 316 318 319 312 313 316 317 319 321 320 320 319 320 319 319 319 319 320 321 321 321 322 322 321 320 318
333 335 336 337 337 337 337 335 335 333 332 332 330 330 331 331 330 329 328 326 325 325 324 324 323 323 324 326 326 325 326 330 321 312 309 308 310 314 316 318 319 315 312 313 313 313 313 314 316 317 313 310 303 302 302 303 304 313 317 309 307 307 312 318 318 317 317 317 317 318 318 317 317 318 318 318 319 320 320 320 321 322 322 322 321
335 336 336 337 337 337 335 334 333 333 331 331 330 329 329 329 329 329 327 326 325 324 322 322 322 319 321 321 323 325 324 327 324 320 310 306 306 308 311 314 313 316 314 313 312 313 314 315 317 317 310 304 301 301 302 303 303 308 306 304 305 309 313 316 317 315 314 315 315 315 316 316 316 316 317 317 317 318 319 320 322 322 322 323 324
336 336 337 337 336 335 334 334 332 331 331 330 328 327 327 327 326 326 326 325 323 322 321 321 321 320 320 320 320 322 323 323 325 322 315 307 303 303 304 305 307 313 315 313 313 313 313 313 315 308 302 299 300 301 302 303 313 306 303 304 308 312 315 315 313 313 315 314 313 313 314 316 316 316 317 317 318 318 319 321 321 321 321 322 324
335 336 336 337 336 333 332 331 330 329 329 328 327 326 325 326 324 325 324 322 321 320 320 320 320 319 318 318 318 319 321 324 324 323 318 310 304 302 302 304 304 304 308 312 315 316 313 308 303 302 303 302 302 304 305 304 303 303 304 306 313 313 313 312 312 313 313 313 313 313 314 315 316 317 318 318 319 319 319 320 321 321 321 325 327
337 337 337 336 334 330 327 327 327 327 327 326 326 326 326 325 324 323 322 322 321 320 320 319 319 318 318 317 318 319 322 325 322 322 322 317 310 305 306 308 310 311 311 313 312 311 308 307 307 307 308 310 312 313 317 316 310 310 311 313 311 311 311 311 311 311 311 312 313 312 313 314 315 317 318 318 317 317 318 318 319 318 319 323 327
335 336 335 334 331 328 326 324 324 324 323 323 323 325 324 323 323 323 322 321 320 320 319 319 318 318 318 318 319 320 322 324 321 320 318 314 314 314 311 313 316 317 316 314 313 311 311 311 311 307 306 309 316 317 316 316 315 313 311 312 312 311 312 310 309 309 310 311 312 312 312 314 316 316 315 315 315 316 318 319 318 317 318 318 326
335 335 335 334 332 330 327 333 327 323 322 323 323 324 322 322 322 321 321 320 319 319 319 319 318 319 318 319 319 319 319 319 315 315 312 311 309 306 309 312 311 309 310 308 305 308 309 309 311 319 318 315 315 315 313 312 313 312 309 309 309 310 312 312 311 309 309 310 311 311 312 312 312 313 314 314 314 315 317 317 317 317 317 317 316
335 336 336 334 332 333 331 334 326 325 321 313 309 309 313 318 320 320 312 308 314 320 320 319 320 321 321 321 319 319 319 316 315 309 310 308 306 304 305 306 305 305 306 301 305 306 307 311 312 312 311 311 310 309 307 307 309 308 308 307 307 305 306 306 304 304 306 309 308 308 308 309 310 311 312 312 313 314 316 315 317 316 317 316 314
334 335 334 334 333 332 328 327 324 322 317 311 309 306 304 296 299 312 313 306 300 296 301 317 318 318 314 311 314 319 319 316 305 299 296 296 296 297 299 296 295 299 299 299 301 302 306 309 308 308 308 307 307 306 306 305 305 304 304 307 305 303 304 304 304 303 306 308 307 307 306 307 307 309 309 311 312 313 313 313 315 316 315 315 313
327 326 326 326 327 330 326 323 322 321 317 313 311 309 306 304 295 295 300 301 297 292 291 293 295 303 315 311 307 303 304 299 296 295 295 294 294 293 293 293 293 293 294 299 305 308 310 308 307 306 306 306 306 304 304 304 305 303 302 303 301 303 304 302 302 303 305 306 306 306 306 306 306 307 307 310 310 311 312 313 315 315 314 315 314
324 322 321 325 331 326 323 324 323 322 318 314 312 311 308 306 305 297 294 296 295 292 291 294 297 300 304 308 306 305 300 295 294 295 294 294 294 293 293 292 292 292 293 295 308 310 309 307 306 305 304 304 305 304 303 302 303 302 301 302 300 301 301 300 301 302 303 304 304 305 304 305 305 306 307 308 309 309 310 310 312 312 313 315 316
323 322 323 327 329 331 326 325 325 323 321 317 314 313 310 309 307 304 303 296 294 292 292 292 294 296 296 296 296 298 298 294 292 292 292 293 293 293 293 293 293 292 294 306 310 307 307 306 305 304 303 302 302 301 301 302 301 301 301 301 299 298 299 300 300 302 303 303 303 302 304 304 305 305 305 307 308 308 308 308 310 311 311 311 314
322 321 322 324 322 322 324 325 324 323 322 320 318 315 315 313 309 306 306 305 305 300 295 293 292 295 293 291 291 291 290 290 290 291 292 293 293 293 293 299 296 290 299 309 308 307 306 305 305 304 303 304 303 304 302 301 302 300 301 301 300 298 298 299 298 300 301 301 300 302 303 303 304 304 304 305 307 308 307 307 308 309 309 309 311
327 336 337 333 320 320 321 323 323 321 321 322 321 320 318 318 314 310 308 307 307 305 305 307 299 293 300 299 293 292 293 292 292 292 292 293 293 293 294 308 308 308 309 310 309 307 307 306 305 305 303 302 303 303 301 299 299 299 298 299 299 297 297 297 298 298 299 299 299 300 301 301 302 303 304 304 305 305 306 306 306 307 308 308 309
325 325 327 328 324 323 321 322 320 321 321 320 321 321 321 321 318 314 310 312 311 310 309 308 309 306 297 295 294 291 290 289 290 291 292 294 298 301 308 308 307 307 307 307 307 308 308 307 306 304 302 300 300 299 299 298 298 297 296 296 299 297 296 296 297 297 298 298 299 300 299 299 300 301 302 303 304 304 305 306 306 307 308 308 308
324 323 323 322 323 322 321 319 319 322 322 320 320 319 320 319 319 317 315 315 315 312 309 309 309 310 308 311 306 296 293 293 293 291 294 299 300 306 305 305 304 304 306 306 306 304 302 301 302 300 300 299 297 296 297 296 297 296 298 295 295 295 296 296 297 298 296 297 297 297 298 298 299 299 301 301 302 303 304 306 305 306 307 308 309
324 322 321 323 322 321 319 317 319 324 320 318 318 317 320 316 317 319 318 318 317 313 309 309 310 308 309 311 315 313 309 299 299 302 301 300 303 304 304 305 304 303 303 303 302 300 299 299 300 300 300 299 297 295 295 294 294 294 293 293 295 295 297 297 298 295 297 296 296 297 298 298 298 299 300 300 300 301 303 304 304 304 305 307 307
323 321 322 322 322 321 318 319 319 317 317 317 316 318 318 316 316 315 315 317 317 314 311 310 310 309 309 309 306 310 309 307 306 305 305 304 303 303 303 302 302 301 302 301 303 300 298 298 301 300 299 298 296 294 293 293 293 293 292 291 291 290 292 292 292 293 294 294 295 296 296 297 298 298 299 299 299 300 301 302 303 303 303 304 305
320 319 320 321 321 320 320 322 319 317 316 316 314 315 317 316 314 313 312 314 314 313 311 311 311 309 309 307 307 304 306 306 306 306 304 303 302 302 301 300 301 300 300 299 299 298 298 297 298 298 297 296 294 293 292 292 291 292 291 291 289 289 290 290 291 292 292 293 294 295 295 296 298 298 298 299 299 299 299 300 301 302 303 303 304
319 320 324 320 319 318 322 319 316 315 314 315 314 314 313 314 314 313 310 311 312 313 312 311 308 307 306 302 298 298 301 304 306 305 306 303 302 300 299 299 299 299 299 300 299 298 297 297 297 297 297 295 293 292 290 289 289 289 290 290 288 290 289 289 290 291 292 292 292 293 294 295 297 297 297 299 299 299 299 300 300 300 301 302 303
318 316 317 317 320 320 318 318 317 319 316 315 312 312 313 315 313 312 312 311 311 310 307 307 305 305 300 297 295 293 299 305 304 304 305 304 302 301 300 299 298 298 297 297 297 300 298 298 297 296 294 293 291 290 289 287 287 286 287 288 287 287 288 288 290 290 290 290 291 293 294 296 298 298 298 299 297 297 298 299 299 299 298 299 301
320 317 318 320 318 317 317 316 315 312 312 312 313 318 316 313 313 314 314 313 311 309 306 304 303 303 302 299 298 296 301 303 308 303 301 301 300 300 298 297 296 296 296 297 297 298 297 296 295 294 292 291 289 288 286 285 286 284 285 286 287 286 285 288 288 289 289 290 290 293 293 294 296 295 296 298 297 298 297 298 299 298 298 298 299
318 318 319 319 318 317 316 314 313 313 312 315 316 315 315 312 313 313 311 311 310 309 306 305 305 304 303 299 299 300 301 301 300 300 301 301 300 299 297 296 296 296 297 297 297 297 296 295 293 291 290 289 288 287 286 285 284 283 283 283 287 288 284 285 286 286 288 288 289 291 291 294 296 295 297 298 296 297 297 297 298 298 298 297 298
317 317 316 315 315 313 313 313 313 313 315 315 312 311 315 309 309 308 308 308 312 308 306 306 306 304 303 301 301 301 300 300 303 303 301 300 300 298 295 295 297 296 296 298 296 296 295 293 292 291 290 288 288 287 286 286 285 284 284 283 282 283 282 282 283 285 288 287 287 289 291 293 293 294 296 295 297 296 296 296 297 299 297 297 297
316 316 315 314 313 313 313 311 316 311 312 309 309 306 306 305 305 308 308 308 310 308 307 306 304 304 303 300 302 303 300 300 300 300 301 299 298 296 296 296 297 297 296 295 296 296 294 293 291 290 288 287 287 286 287 287 287 286 284 283 283 283 283 284 284 287 287 286 287 288 290 293 294 296 299 296 294 296 295 296 297 297 297 297 297
314 315 315 316 314 313 313 313 311 309 308 307 306 304 304 303 304 307 311 309 307 309 306 305 304 303 302 302 303 300 302 301 300 300 299 299 297 296 297 297 297 297 296 296 296 296 296 294 291 290 289 287 286 286 284 284 284 285 286 284 282 284 283 285 286 286 285 287 288 287 289 292 294 294 297 296 294 294 296 296 297 296 297 297 296
313 314 313 315 313 312 312 312 312 315 309 309 307 307 307 305 305 307 305 307 308 307 306 305 304 303 304 303 303 301 302 300 301 302 300 298 296 297 298 298 296 295 295 295 296 295 294 293 291 290 290 289 289 287 285 283 283 283 282 282 283 283 285 287 284 285 285 285 287 289 290 292 291 293 294 294 292 294 294 294 296 296 297 297 297
310 311 311 312 311 311 311 311 311 309 308 308 307 308 307 307 305 304 305 305 306 305 303 304 303 303 303 303 302 301 302 304 300 300 299 298 296 295 297 297 297 294 294 293 293 294 294 293 292 290 288 287 287 287 286 286 285 284 284 281 284 287 285 287 286 285 287 287 287 288 291 291 291 292 294 293 293 293 294 294 294 296 295 296 296
309 313 312 311 311 310 310 310 309 307 307 305 304 305 306 307 305 305 304 303 303 304 301 301 303 303 303 302 303 301 302 301 300 299 298 297 296 296 297 296 295 294 293 292 292 293 292 291 289 289 288 287 287 287 287 286 284 284 283 282 287 285 285 286 287 288 287 285 287 288 290 290 290 290 291 292 290 292 294 295 295 295 295 294 295
311 308 308 308 308 308 308 306 306 305 304 305 304 303 304 303 303 303 303 302 302 302 302 300 301 303 302 302 304 302 302 301 300 299 298 297 296 295 296 295 295 294 292 292 292 291 291 290 289 289 289 291 288 287 285 284 282 282 285 286 285 285 285 284 283 285 287 289 287 291 292 292 291 291 292 293 291 291 296 296 295 294 294 294 295
Wind_Speed
11 10 9 9 9 9 9 7 8 7 7 7 7 6 5 4 5 5 3 4 4 4 5 6 5 5 4 4 5 4 4 4 3 3 3 4 4 4 4 3 4 4 3 4 2 3 4 4 4 5 4 4 5 5 4 4 3 4 3 3 4 3 3 3 6 9 7 6 7 9 10 9 10 10 12 12 12 11 13 12 12 11 11 10 10
12 10 8 9 10 10 9 8 8 6 7 6 6 6 5 5 5 4 5 6 4 5 6 5 4 4 4 5 5 5 4 4 4 3 4 4 4 3 4 4 4 4 4 4 4 3 4 4 5 5 4 5 4 6 6 5 5 4 5 5 5 5 4 3 5 7 11 8 9 7 9 8 10 9 10 13 13 12 13 13 11 10 10 9 9
11 10 9 9 11 10 9 8 7 7 7 7 7 6 5 5 4 5 6 5 4 5 6 5 5 5 5 5 5 5 5 5 4 4 4 4 5 4 4 4 4 4 4 5 5 4 4 4 6 6 4 4 5 6 6 6 6 6 6 5 5 6 5 5 4 7 8 9 9 10 9 8 9 12 12 11 11 12 14 13 11 10 9 9 9
10 9 9 9 9 9 9 8 9 9 9 8 8 7 6 6 5 5 5 5 5 5 5 6 5 6 6 6 5 5 5 5 4 5 6 6 5 5 4 4 4 4 5 5 5 4 5 5 6 6 5 5 5 6 6 6 6 6 5 5 5 6 5 4 5 6 5 9 10 10 9 9 10 10 9 11 11 12 11 12 11 11 11 10 10
11 11 10 10 10 10 10 10 10 9 9 7 8 7 7 7 4 5 5 5 5 5 5 5 5 5 6 6 5 5 6 6 5 5 5 5 6 5 5 4 5 5 5 5 5 5 5 5 6 5 5 5 5 5 5 6 6 5 6 5 5 5 4 5 5 5 7 10 11 9 9 9 9 11 10 10 11 10 11 11 11 11 11 10 9
12 11 10 11 10 11 11 9 10 10 9 8 8 8 7 6 5 5 5 5 5 5 5 4 4 5 5 5 5 5 5 5 6 6 6 6 5 5 5 5 5 5 5 5 6 5 6 6 6 6 4 5 6 6 5 6 5 5 6 6 5 4 5 5 5 6 7 9 9 11 9 10 10 9 9 9 11 12 11 11 10 9 9 10 9
12 12 11 12 11 12 11 10 10 9 8 9 7 7 7 6 6 6 5 5 5 4 4 4 3 4 5 4 4 5 5 5 6 6 5 5 5 5 5 5 5 5 5 6 6 6 6 6 6 6 6 6 6 5 5 5 6 7 7 6 5 5 5 5 5 7 8 8 9 8 10 9 8 11 10 9 10 10 11 11 10 7 7 8 10
12 12 12 11 12 12 10 10 9 9 8 8 7 7 6 6 6 6 6 6 6 5 4 4 3 4 5 5 5 5 4 4 4 4 5 6 6 5 6 6 6 5 5 6 6 6 6 6 6 6 7 6 5 5 5 6 5 6 6 5 5 5 5 5 6 7 8 8 8 9 8 10 10 8 9 9 9 9 7 8 11 11 10 8 8
12 13 12 12 12 11 10 9 8 8 9 8 7 7 7 6 5 6 6 5 4 4 4 3 4 4 4 5 4 3 3 4 4 4 5 6 6 6 6 6 6 6 5 6 6 5 5 5 5 5 6 8 10 8 8 7 5 6 6 5 5 5 5 5 6 7 7 8 9 7 8 9 9 10 10 10 10 10 11 9 11 11 10 10 10
13 13 13 12 12 11 10 8 8 8 8 9 8 7 6 6 6 6 5 5 4 4 3 3 4 5 5 4 4 3 4 4 5 9 9 7 7 6 6 6 6 6 6 6 6 5 5 5 5 9 10 10 10 10 11 11 11 9 8 6 6 5 5 6 7 6 7 8 8 8 9 9 10 10 10 11 11 10 11 10 10 10 10 11 10
14 13 14 14 13 11 9 9 9 10 10 8 6 6 7 7 6 6 5 5 5 4 4 5 5 5 5 4 4 5 5 4 9 10 12 13 8 6 6 6 6 6 6 6 6 6 5 4 4 6 7 7 7 10 11 11 11 12 13 13 9 7 6 7 7 7 7 8 8 8 9 10 11 10 10 11 10 11 11 10 10 10 10 11 13
15 14 14 13 11 11 11 10 9 9 8 8 7 7 6 6 6 6 6 6 6 5 5 6 5 5 5 5 5 6 6 7 11 11 12 13 11 7 6 6 6 6 6 6 6 5 6 6 5 4 4 6 6 6 8 10 10 10 11 12 13 12 11 8 8 8 7 7 8 10 8 9 10 10 11 10 11 11 11 11 11 11 11 11 10
14 14 13 12 12 12 11 10 10 9 9 8 7 6 7 7 7 7 8 7 5 6 7 5 6 6 6 6 7 7 6 9 10 10 11 12 13 10 6 6 7 7 6 5 5 5 5 6 6 5 5 9 7 5 5 6 8 9 10 11 11 12 12 13 13 11 8 8 8 11 10 9 10 11 11 11 11 12 12 11 11 11 10 12 12
14 14 12 12 11 10 10 10 10 9 8 7 7 7 7 9 8 7 6 5 6 7 6 6 6 6 6 7 7 7 6 8 10 11 11 12 11 9 6 6 6 6 5 5 5 5 6 6 6 6 6 5 6 5 4 5 5 4 4 5 6 8 10 11 13 15 15 10 9 11 12 9 10 12 13 11 12 13 13 14 13 13 13 13 13
12 11 10 9 7 7 9 9 10 8 7 7 7 7 8 7 7 6 6 7 8 8 7 6 6 6 7 7 7 7 6 9 11 11 9 9 8 7 5 5 5 5 5 5 6 6 6 6 6 7 7 6 6 6 5 5 4 4 4 6 6 6 6 7 7 5 5 7 9 11 12 11 11 12 12 11 11 12 12 14 15 15 15 15 14
10 7 6 5 6 8 8 9 9 8 7 7 7 8 8 8 8 5 5 6 6 5 5 6 6 7 7 7 7 7 7 10 11 10 9 8 8 5 5 5 5 5 5 5 5 6 5 6 6 7 7 7 9 10 8 4 3 3 5 6 6 6 6 8 9 8 8 8 8 9 10 12 15 15 15 14 13 13 13 12 11 12 12 14 15
6 6 4 8 9 8 8 9 8 8 7 7 8 9 9 8 6 3 4 5 4 5 5 5 5 6 6 6 7 7 7 8 12 12 11 11 7 5 4 4 4 4 5 5 5 5 5 5 5 6 6 6 8 8 6 4 2 3 5 6 6 5 8 6 6 10 11 13 14 16 18 19 18 19 20 22 16 14 12 12 13 12 12 13 13
9 12 10 9 9 8 9 9 9 8 7 9 10 10 4 2 1 1 5 5 6 6 5 5 6 6 7 8 7 8 8 8 12 11 12 11 8 5 5 5 4 3 4 4 5 5 5 9 7 4 5 6 6 4 4 3 2 4 4 5 6 6 7 6 6 7 10 13 14 15 15 15 16 18 19 19 18 15 11 13 14 12 13 12 13
8 9 10 10 9 9 9 9 9 9 9 11 9 3 5 8 8 7 7 7 7 5 3 1 5 8 10 12 12 10 8 6 8 10 9 9 6 4 5 5 3 3 4 5 4 5 4 4 8 8 6 5 3 5 5 4 3 4 3 3 5 7 7 7 8 10 9 10 9 9 10 11 11 10 12 17 18 16 12 13 13 14 13 13 13
11 11 10 10 9 9 8 8 8 9 10 5 4 8 7 5 5 6 5 6 5 1 3 5 7 10 8 10 12 9 7 4 7 9 9 9 8 5 4 5 4 4 3 4 6 5 3 5 6 8 8 6 6 8 7 7 5 3 2 3 4 7 5 7 9 10 11 9 9 9 10 10 10 10 11 11 12 13 13 13 13 13 13 13 12
10 10 9 8 8 8 7 8 8 6 6 8 6 4 4 5 4 4 1 1 0 2 3 2 4 5 5 6 5 5 6 3 5 10 9 9 9 7 5 5 4 3 4 4 5 6 6 5 6 7 8 7 5 8 8 8 5 3 4 4 3 6 7 7 10 11 8 8 8 8 8 8 9 10 10 11 11 12 12 13 14 13 13 12 12
9 8 7 8 8 7 7 4 5 6 5 5 6 6 6 6 5 5 4 4 5 6 5 4 4 6 4 2 3 2 4 8 6 7 9 10 11 9 6 4 3 4 3 5 5 5 6 5 6 7 10 6 4 6 9 7 6 5 5 8 8 8 6 6 6 6 6 7 7 8 8 9 10 10 11 11 12 13 14 14 14 14 13 13 14
8 7 7 7 7 5 5 7 6 5 5 6 7 6 4 5 6 6 7 7 7 7 5 3 5 5 6 4 4 5 6 8 10 8 10 11 12 9 6 4 3 3 4 5 5 6 5 5 7 10 9 7 7 9 9 5 6 6 8 6 6 8 6 4 5 6 6 6 6 7 8 9 10 11 12 12 13 15 15 15 16 15 15 14 14
6 7 6 6 4 5 6 6 6 6 7 7 6 7 6 5 5 6 6 6 7 7 6 6 6 6 6 5 3 4 5 6 7 11 10 12 9 10 8 6 4 3 4 5 5 5 6 6 6 10 11 11 10 8 7 7 6 8 6 6 6 5 3 4 4 5 6 6 6 7 9 9 9 10 11 12 13 16 16 16 16 16 15 13 13
7 7 6 6 6 6 5 6 6 6 6 8 8 7 7 7 6 5 6 5 6 7 7 6 7 6 5 5 5 4 5 6 5 9 11 9 9 9 8 8 7 6 4 4 3 5 6 9 10 12 11 11 9 4 3 6 8 6 6 7 4 3 4 4 5 6 6 7 7 8 8 9 10 11 12 13 14 15 15 15 16 16 14 11 11
5 6 5 5 7 7 7 6 6 7 8 7 9 9 9 7 7 5 6 6 7 7 7 7 6 5 6 5 5 6 7 5 6 6 7 8 6 9 8 8 5 6 6 5 5 6 8 10 11 10 7 4 1 2 3 2 3 4 5 4 2 5 4 4 6 6 7 8 8 9 9 10 10 11 12 12 12 14 15 16 16 17 16 11 7
4 5 6 7 7 8 8 7 6 6 6 6 4 5 5 5 6 6 6 6 6 6 6 6 6 5 6 6 5 6 6 5 5 6 6 6 4 3 2 0 1 1 1 2 4 5 7 7 7 8 5 3 2 3 3 1 2 4 4 2 3 5 3 3 4 5 6 8 8 9 9 10 10 10 11 12 12 13 14 15 15 15 15 16 5
5 5 7 7 7 8 7 10 9 7 5 5 5 4 4 4 6 7 7 7 6 6 6 6 6 6 6 6 6 5 5 5 5 6 6 4 2 1 1 1 2 1 2 2 4 5 6 7 5 2 4 3 4 4 4 3 4 4 6 4 4 6 6 7 6 3 5 6 7 8 8 9 10 10 10 11 11 12 14 14 15 15 13 12 10
4 6 6 6 6 6 7 7 7 7 6 4 3 2 0 1 2 3 0 1 2 5 5 5 5 6 6 6 5 5 3 6 6 4 3 4 3 2 1 0 1 1 2 4 5 5 4 1 4 4 5 4 4 5 5 5 5 5 4 5 5 5 5 5 5 6 6 7 7 8 9 9 9 10 10 11 11 12 12 14 14 14 11 9 11
6 6 6 6 5 5 5 5 6 6 7 6 5 4 6 5 4 2 0 4 4 1 3 5 3 3 4 3 2 6 5 3 7 8 6 5 3 3 1 1 1 1 3 5 3 5 2 5 4 5 5 5 5 4 5 5 5 5 5 3 4 5 5 5 5 6 6 6 6 7 8 8 9 10 10 10 11 12 12 12 13 14 13 12 12
3 4 4 5 5 6 5 5 5 5 5 6 5 5 3 4 8 8 6 3 3 4 3 7 7 7 5 4 1 2 4 8 9 7 4 1 2 3 3 5 3 2 3 2 2 2 3 4 4 4 4 5 5 4 4 4 3 4 5 5 5 5 5 5 6 6 6 6 7 7 7 7 8 9 9 10 11 12 11 11 11 12 13 12 11
5 4 3 3 4 3 5 5 5 5 4 4 5 5 5 4 2 4 4 4 5 5 6 6 1 1 1 3 5 2 4 6 6 3 2 3 5 5 2 2 3 1 2 5 1 4 2 3 4 4 4 5 3 3 3 4 3 4 4 4 6 5 6 6 7 6 6 6 7 7 8 8 8 8 8 9 10 10 11 12 12 13 13 11 11
4 3 3 3 3 3 5 4 5 5 6 6 5 5 6 6 6 2 1 2 3 5 8 8 8 8 7 7 8 5 4 3 2 2 3 3 5 6 7 6 4 3 5 3 4 4 3 3 4 3 3 4 2 3 3 3 3 4 5 4 5 6 5 6 6 5 5 6 6 7 7 8 8 8 8 9 9 10 11 11 12 12 12 12 12
5 5 4 4 3 3 5 5 5 5 6 6 6 6 5 5 5 5 5 2 1 3 4 6 6 6 7 6 6 6 4 3 3 5 7 9 9 8 4 2 0 8 5 3 5 4 3 4 3 2 2 1 1 2 2 3 3 3 4 3 4 4 5 5 5 5 5 6 6 6 7 7 7 8 9 9 8 8 10 11 11 11 12 12 12
4 5 7 5 4 3 3 5 5 5 5 6 5 5 6 5 5 6 5 5 4 4 3 1 3 3 2 2 4 5 4 4 5 5 7 7 9 1 7 5 5 4 4 4 4 4 4 3 3 2 2 3 2 2 2 3 4 4 4 3 3 5 5 5 5 5 6 6 6 7 7 7 7 7 8 8 9 10 10 11 11 10 11 12 12
5 5 4 5 4 4 3 4 5 5 6 6 5 5 5 5 5 5 4 4 4 4 3 2 1 1 0 2 1 1 1 2 2 4 5 6 5 7 6 5 5 4 4 3 4 4 3 3 3 4 3 4 4 4 3 3 4 4 4 4 4 4 5 5 6 6 6 6 6 7 7 7 8 7 7 7 8 8 8 9 9 10 10 10 10
6 5 5 4 4 4 3 4 3 4 3 3 3 3 3 3 3 5 6 5 5 4 5 4 2 1 1 1 2 2 2 1 3 4 5 5 6 5 5 5 5 4 4 4 4 4 5 4 4 4 4 3 4 4 5 4 4 4 4 5 5 5 5 5 6 6 6 7 7 7 7 7 8 8 8 8 8 8 8 9 10 10 10 12 11
5 5 5 4 4 3 3 3 2 3 2 2 2 3 2 2 2 3 5 6 6 6 6 5 4 5 5 3 2 1 0 2 3 5 5 6 4 5 5 5 4 5 5 5 4 5 5 3 4 4 3 4 4 4 4 5 4 5 5 4 5 4 7 6 7 6 6 6 7 7 7 7 7 7 7 7 8 8 9 9 9 10 11 12 10
3 5 7 7 5 5 4 3 2 3 3 3 3 3 2 2 2 4 4 4 5 5 6 5 5 4 3 1 1 2 2 0 0 1 3 2 3 3 4 4 4 4 3 4 4 4 5 4 3 4 4 4 5 4 4 4 5 4 5 4 5 5 6 6 6 6 6 7 7 7 7 7 7 7 7 6 8 8 8 8 8 9 9 10 9
4 4 4 6 5 4 3 2 2 1 2 2 2 3 3 3 3 3 4 4 4 5 5 6 5 3 2 1 2 2 2 1 2 4 4 3 3 4 4 4 5 5 4 4 4 4 5 4 4 5 4 4 4 4 4 4 4 4 4 5 4 5 5 5 5 6 6 6 6 7 7 8 7 7 7 7 7 7 7 8 8 8 8 8 9
5 3 4 4 5 3 3 2 1 1 1 1 1 4 5 3 3 4 4 4 4 4 3 4 4 3 2 2 2 2 1 2 5 5 5 5 4 5 5 5 5 4 3 3 3 3 4 4 4 5 5 4 4 4 4 4 4 4 5 4 4 4 5 5 5 6 6 6 7 7 7 7 7 7 8 8 8 7 7 6 7 7 8 8 8
5 5 5 5 4 3 3 2 1 1 2 2 2 3 3 3 4 5 5 5 5 4 5 3 3 2 2 3 3 2 1 2 5 5 5 4 5 4 4 4 4 4 4 3 4 6 4 4 5 5 5 5 4 4 4 5 4 4 4 4 4 4 5 5 5 5 6 6 7 7 7 7 7 8 8 7 7 8 7 7 7 7 8 8 8
4 3 4 4 4 4 3 2 2 3 2 3 2 3 3 4 4 5 5 5 5 5 5 5 3 2 3 3 3 4 3 5 5 5 4 4 4 3 4 4 4 4 3 3 3 5 5 6 6 5 5 5 5 4 5 4 3 4 4 4 3 4 4 5 5 6 6 7 7 7 7 7 7 7 7 7 8 7 7 8 8 8 8 8 8
4 4 4 4 4 3 3 4 3 2 2 3 3 2 3 3 3 4 5 5 6 5 5 5 5 5 4 3 3 5 5 5 5 6 5 5 5 5 5 4 4 3 2 2 3 5 6 7 7 6 5 5 5 4 4 4 3 4 4 3 3 3 4 4 5 6 6 6 6 7 7 7 7 7 7 8 7 8 8 8 8 8 8 8 8
6 6 6 6 5 5 3 3 3 3 2 1 1 1 2 3 3 3 3 5 5 5 5 5 5 5 4 3 4 6 6 6 5 5 4 5 5 5 3 3 4 3 3 4 5 5 6 7 7 6 6 5 4 4 4 4 3 3 2 2 2 3 4 5 5 5 5 5 5 5 6 7 7 7 7 7 7 7 7 8 8 8 9 9 8
5 5 5 5 5 5 5 4 3 3 3 4 4 2 2 3 4 3 3 4 5 6 5 5 5 4 5 5 3 3 5 5 5 5 4 5 4 4 4 4 5 3 3 4 4 5 6 6 6 6 6 5 4 4 4 3 2 1 1 1 1 1 3 4 5 5 5 5 5 5 6 6 6 6 8 7 6 7 7 8 7 8 7 8 8
5 5 5 5 6 5 5 4 3 4 3 3 3 3 3 4 4 3 3 4 5 5 6 6 6 6 6 6 5 5 5 5 6 6 5 4 4 5 4 4 5 4 3 3 4 6 6 6 6 6 6 5 4 4 3 2 1 1 0 0 1 2 3 3 4 4 5 5 4 4 5 5 6 5 7 7 6 7 7 7 7 8 8 8 8
2 4 5 5 5 6 5 5 6 5 4 4 3 4 4 4 3 4 4 4 4 6 6 6 6 6 6 6 5 5 5 5 5 6 5 3 3 4 4 5 5 5 4 3 3 4 6 6 6 6 5 5 5 4 3 2 1 0 1 2 3 3 5 5 3 3 3 4 4 4 5 5 5 6 6 6 6 6 7 7 7 7 8 8 8
0 2 4 5 6 6 6 6 6 6 6 6 5 6 5 5 5 5 4 5 5 5 7 7 7 7 7 7 6 6 5 5 5 6 6 6 4 3 5 5 5 5 6 5 5 4 6 6 6 5 5 5 4 4 3 2 1 0 1 2 3 6 6 6 4 5 5 4 4 4 4 5 5 5 6 6 6 6 6 6 6 7 7 7 8
2 1 1 1 1 1 1 3 4 5 4 4 6 6 6 6 6 6 6 5 4 5 6 6 8 8 8 7 7 7 7 6 6 6 6 6 6 5 6 6 6 6 6 5 4 5 6 6 6 5 5 4 4 3 3 2 1 0 1 2 6 7 7 7 5 8 6 5 4 4 4 4 5 5 5 6 6 7 7 6 6 6 6 7 8
4 4 4 4 2 1 1 3 5 4 3 4 6 6 6 6 7 6 4 5 6 7 7 6 7 7 8 8 7 7 7 7 7 6 6 6 6 5 5 6 6 5 4 4 4 6 7 6 6 5 5 4 3 3 3 2 2 1 2 4 6 7 7 6 6 8 9 6 4 4 3 4 5 5 6 6 6 6 7 7 7 6 6 6 7
Wind_Direction
181 186 178 178 170 179 179 178 182 184 175 170 168 175 177 185 199 213 202 215 208 207 209 213 215 217 225 221 217 212 213 234 241 233 223 228 231 228 239 224 227 245 233 254 231 214 222 235 254 246 230 209 210 203 200 196 185 184 188 198 236 237 205 227 261 284 287 274 282 288 292 296 295 293 297 299 300 299 294 283 277 271 268 262 256
184 181 178 176 179 179 179 180 179 178 171 172 171 182 190 195 205 199 209 228 206 211 218 228 223 219 224 230 225 217 213 215 233 232 230 227 235 224 229 224 229 234 229 243 245 227 232 242 256 254 234 220 208 204 202 200 198 199 209 201 225 246 214 209 247 277 295 302 295 283 287 290 289 292 296 300 300 299 295 292 282 272 267 265 257
182 174 173 178 182 177 173 178 176 178 173 179 180 184 199 212 206 206 218 229 222 217 228 232 230 225 222 228 228 224 218 213 221 218 221 217 223 230 220 209 206 221 231 239 238 238 243 243 248 246 242 235 229 218 205 206 205 205 218 201 215 234 231 211 239 275 286 294 294 298 298 300 293 298 298 292 291 292 292 289 285 279 269 262 260
177 172 176 182 176 170 175 176 177 181 185 187 186 185 198 216 212 206 221 227 230 235 226 227 229 227 228 234 227 225 221 217 215 217 219 217 219 220 214 210 214 221 227 235 240 237 238 247 253 247 245 246 244 234 224 217 212 217 219 218 212 236 239 227 219 248 276 291 297 297 298 301 296 292 292 291 291 291 286 285 280 276 274 269 263
174 179 178 176 177 176 179 179 183 187 193 195 191 183 197 216 208 208 223 231 230 230 236 228 226 225 227 233 230 224 219 211 214 222 224 221 213 209 214 219 223 228 232 236 241 240 244 238 248 246 243 244 254 249 240 232 230 221 224 224 222 234 242 235 242 244 270 287 292 291 294 291 288 291 291 296 297 291 288 285 285 281 276 270 268
177 177 177 177 182 183 184 184 189 192 192 193 196 188 197 207 204 218 209 212 213 204 203 208 202 210 214 212 206 209 212 213 215 221 220 219 216 212 215 221 230 234 236 237 240 241 240 245 248 246 241 228 236 235 233 237 236 231 229 231 232 236 241 250 248 256 266 276 286 295 298 298 301 291 294 293 295 300 297 289 284 278 277 277 268
174 174 180 182 184 189 184 189 191 190 193 197 192 190 200 200 199 205 194 193 185 195 207 202 209 180 190 178 186 197 210 218 223 228 225 218 212 209 219 231 240 239 240 239 243 242 242 245 248 239 226 222 228 233 241 244 234 236 229 230 238 232 242 254 261 273 278 285 288 284 290 289 288 298 299 292 287 284 290 299 296 286 270 267 274
173 176 180 185 191 192 189 192 190 189 192 193 191 194 197 198 196 191 181 184 188 192 205 206 211 178 188 192 202 200 205 220 230 232 225 215 209 215 218 228 239 243 246 249 247 248 246 244 240 232 224 227 226 239 234 247 239 240 238 232 238 231 245 260 270 275 285 291 287 291 290 293 298 286 289 295 296 292 282 297 301 304 301 284 266
173 177 183 187 193 193 191 192 189 190 192 193 195 201 203 201 192 185 185 189 191 195 205 197 188 211 225 217 223 221 214 231 234 218 215 218 212 220 223 229 233 239 247 251 249 248 254 252 253 248 232 232 228 233 237 229 229 242 254 237 233 230 246 259 267 277 285 289 289 283 286 292 293 301 307 307 304 299 300 296 289 289 291 292 284
175 182 185 187 193 193 189 188 189 195 197 195 199 201 203 201 193 192 191 193 197 204 210 220 206 214 228 239 242 233 228 228 232 222 211 206 212 221 227 231 230 234 245 258 266 253 248 252 256 249 238 237 245 251 255 254 242 233 244 238 230 228 237 249 265 274 284 288 285 290 292 290 296 301 300 299 297 295 292 291 289 294 294 289 284
179 181 186 191 193 189 181 192 194 195 202 198 193 193 197 191 190 192 195 198 201 207 203 217 226 224 222 234 237 227 230 232 233 224 220 219 214 218 223 231 229 231 234 240 254 270 274 263 258 257 249 255 259 261 261 259 255 242 241 239 230 220 235 250 263 275 279 278 283 283 277 282 288 295 297 299 299 298 295 291 288 290 291 297 296
179 184 188 189 186 188 196 192 191 199 193 197 194 195 188 190 192 196 199 206 212 204 213 218 223 233 235 234 230 229 231 236 238 235 228 230 228 223 224 230 231 230 231 234 243 255 266 271 264 253 255 252 256 263 265 261 256 253 245 240 241 236 230 229 259 280 272 271 276 275 275 278 287 296 297 299 301 302 296 291 283 280 280 279 276
179 182 187 184 183 190 194 193 196 195 197 195 193 187 193 199 202 202 208 207 199 208 218 216 227 236 237 236 236 235 233 240 242 239 235 233 231 222 226 227 229 231 228 232 241 249 256 261 267 264 259 264 263 258 258 270 270 259 246 244 244 235 233 235 234 239 257 261 264 275 273 279 289 289 290 294 299 295 298 293 287 274 265 267 268
180 182 181 183 182 187 192 192 197 200 195 190 186 190 197 208 209 208 204 200 207 217 216 218 228 235 235 233 236 241 236 242 231 230 226 225 225 213 224 224 230 233 233 235 241 246 247 248 255 265 266 267 266 264 260 256 261 264 260 252 254 252 248 246 242 236 236 243 254 266 275 274 277 285 289 293 296 296 297 293 294 287 278 267 266
176 173 171 168 167 191 191 192 196 196 190 184 183 195 203 213 211 207 199 205 211 215 215 219 228 230 234 232 234 238 241 227 218 214 213 217 218 203 216 221 229 235 238 240 243 247 251 245 243 248 261 271 268 261 257 258 258 259 263 268 263 265 266 268 259 244 234 228 235 248 262 273 276 279 284 286 283 282 279 282 283 283 281 278 270
162 150 145 140 183 194 190 193 193 189 183 181 187 201 209 210 213 204 208 222 228 223 228 222 226 228 228 230 229 238 245 226 210 210 210 214 194 194 200 216 225 236 245 250 255 254 252 245 244 251 256 262 268 262 252 242 226 251 266 272 280 272 264 253 259 263 259 256 258 262 269 271 276 282 284 285 285 285 281 278 277 274 276 274 267
120 121 189 194 206 200 194 190 192 186 183 181 199 208 211 214 217 197 217 233 237 238 237 232 234 232 235 231 231 242 251 224 202 200 203 202 185 193 200 209 220 230 245 253 260 261 256 251 248 257 260 260 263 254 228 175 203 252 265 273 275 280 279 291 270 265 265 266 268 268 267 267 273 281 284 283 279 278 286 284 279 277 272 269 266
160 169 198 209 208 201 194 189 191 185 176 196 206 215 200 68 67 188 220 228 232 230 231 240 244 240 239 243 237 240 247 221 199 198 202 195 184 187 197 198 216 232 257 267 268 270 268 270 270 252 259 266 258 216 187 175 229 253 259 270 287 293 296 302 302 292 288 284 280 278 279 285 294 292 287 284 285 287 288 287 286 280 273 266 264
181 187 201 208 208 199 192 188 189 185 190 207 207 167 135 180 200 196 207 213 222 229 238 324 13 350 332 313 275 250 245 220 199 197 196 186 182 191 182 188 208 241 252 274 270 266 276 281 283 286 284 276 215 203 212 208 242 250 244 266 287 293 294 307 305 304 305 308 306 309 304 298 294 292 291 289 288 289 285 282 284 277 275 273 266
197 201 204 202 200 194 188 190 191 193 204 193 146 169 176 169 199 209 214 211 225 177 128 169 201 225 210 243 272 271 245 206 188 191 182 183 193 172 176 163 212 234 248 257 290 292 284 286 286 285 279 255 220 212 223 229 254 247 220 253 283 285 301 303 297 293 291 287 290 289 286 290 295 295 296 296 296 296 293 285 280 274 268 270 262
193 199 198 194 192 191 190 192 194 186 175 187 175 112 109 129 140 161 155 78 210 248 247 252 251 260 257 281 292 328 322 290 205 185 182 187 191 174 180 184 192 201 232 261 262 275 290 281 278 275 269 261 216 214 256 273 233 212 216 236 248 284 309 292 296 293 295 296 291 291 292 300 302 298 296 299 300 303 300 292 283 274 265 262 258
194 193 188 192 193 193 187 166 163 174 173 146 121 123 148 154 152 131 159 187 218 239 232 224 224 245 218 198 111 115 319 319 268 221 198 191 190 187 168 191 175 188 232 261 262 263 257 268 273 276 282 285 174 267 278 266 206 208 222 231 271 290 292 285 291 299 293 292 293 297 302 306 305 304 304 307 308 307 306 300 290 280 266 254 251
187 187 187 188 194 177 149 158 160 151 157 155 143 152 142 144 158 165 198 203 212 221 218 193 202 222 215 217 186 171 205 238 227 212 208 199 192 190 190 168 173 192 212 252 253 257 269 269 274 278 290 321 301 282 268 236 196 221 228 254 275 289 295 305 304 303 299 298 300 301 304 302 306 310 311 313 313 312 310 304 297 290 280 264 243
172 176 182 186 164 140 153 155 150 154 154 153 134 136 158 166 173 201 200 199 202 214 208 200 198 209 220 222 215 228 252 257 225 209 201 197 184 191 190 200 177 206 211 240 256 264 271 269 273 296 309 303 291 274 254 203 213 215 234 259 286 323 324 324 316 304 304 299 307 313 310 304 303 307 309 309 309 312 310 307 305 301 291 266 244
175 172 172 175 158 145 133 140 147 149 150 147 150 160 178 185 190 201 186 187 195 206 216 202 209 209 209 223 231 228 234 237 222 211 194 175 184 191 197 194 213 200 215 236 249 255 265 278 294 296 295 291 285 257 231 219 231 235 242 255 289 357 339 338 324 319 314 316 316 312 305 306 306 301 303 302 304 309 313 317 317 316 310 279 227
153 164 165 147 137 137 129 131 138 149 159 169 172 181 183 185 190 188 185 192 198 209 219 212 221 219 215 219 217 234 240 222 202 188 185 181 189 196 194 207 224 210 217 243 256 281 293 297 294 293 292 286 246 145 184 194 227 278 272 245 10 345 340 341 338 332 324 320 320 316 310 307 308 306 301 309 319 321 324 326 327 331 334 319 208
191 137 143 141 139 140 142 146 152 162 169 173 173 176 175 175 179 183 189 194 200 212 217 213 219 219 230 230 229 228 230 205 187 184 179 171 168 167 173 168 261 351 354 324 342 329 303 295 287 286 281 277 222 141 124 75 34 11 13 1 16 358 339 344 332 324 320 321 318 315 311 310 304 309 325 327 324 325 329 328 330 334 339 339 265
154 151 140 146 152 156 157 169 159 166 171 169 169 176 189 175 178 190 194 193 198 217 213 216 213 214 229 237 238 238 220 194 185 184 186 173 136 63 30 24 27 37 335 346 340 306 300 293 306 71 116 94 58 35 28 23 37 23 9 360 17 353 343 340 340 318 311 301 306 309 316 320 321 325 323 325 325 326 329 332 334 334 341 344 5
124 145 157 150 169 167 166 157 153 149 129 86 53 40 8 174 192 214 58 40 231 226 220 220 213 216 219 228 230 242 227 208 213 173 158 146 158 159 175 181 50 10 71 39 333 312 290 24 56 52 50 61 52 43 26 25 28 16 8 2 360 348 336 346 347 338 327 324 330 329 325 325 325 329 328 328 330 329 330 333 330 334 334 347 10
166 166 170 167 167 165 146 146 143 140 139 134 126 89 56 66 20 332 111 59 55 353 215 220 223 201 179 230 205 208 218 218 134 132 138 145 156 184 188 1 280 266 356 348 327 305 330 64 59 60 55 55 52 41 28 26 23 2 345 356 358 349 345 343 341 331 329 328 326 326 328 328 331 334 332 330 330 330 332 335 329 331 343 358 5
128 158 158 180 171 164 144 136 143 133 138 138 143 137 131 72 58 52 42 49 11 350 296 260 258 259 202 194 46 43 126 130 136 138 133 159 210 228 232 227 209 94 85 61 257 224 57 78 57 54 52 57 57 39 33 23 11 352 346 348 356 349 347 339 338 333 334 333 330 328 326 334 332 332 331 331 331 330 333 335 333 336 343 349 7
163 175 151 142 123 125 133 144 144 143 141 147 149 151 143 133 92 63 78 43 23 22 6 3 345 190 59 118 132 73 55 75 98 112 156 223 235 228 217 27 49 115 151 201 186 70 67 77 66 53 57 56 43 43 29 21 358 351 343 353 359 352 349 345 334 331 330 333 336 332 335 334 333 330 333 331 334 334 338 339 343 343 342 346 0
142 127 121 116 133 143 132 150 158 156 156 160 175 168 161 166 162 171 20 74 80 44 35 31 40 50 49 44 42 83 126 135 146 195 257 271 323 351 20 10 353 125 156 147 119 102 81 82 77 69 70 72 53 48 31 13 4 359 358 1 4 351 340 332 325 330 336 334 332 330 329 329 330 334 339 341 343 341 337 343 343 343 343 346 353
139 143 143 151 143 157 153 162 167 169 169 175 179 180 183 171 162 155 135 116 91 53 56 56 54 55 54 52 54 63 76 67 25 3 2 348 341 334 26 25 359 177 187 122 120 113 106 95 91 90 85 87 53 36 33 22 20 17 2 0 1 346 334 325 336 341 338 337 337 329 328 331 334 341 345 346 343 338 343 349 348 347 348 348 348
87 106 124 122 128 136 154 159 158 154 161 175 179 187 181 169 157 161 167 167 163 148 133 76 38 53 62 33 35 38 26 6 7 354 346 334 323 26 120 117 92 76 60 67 97 104 111 111 106 84 68 46 24 28 27 25 21 22 10 356 1 347 340 346 347 339 339 335 337 340 335 337 339 343 344 344 348 350 351 349 348 348 349 348 348
92 85 82 99 103 111 112 124 142 154 170 179 183 183 175 168 165 170 160 160 163 152 138 155 139 279 266 355 244 263 302 297 306 318 316 330 19 136 118 112 87 90 80 65 84 84 76 70 74 63 51 53 41 40 26 32 20 17 20 16 359 353 346 346 346 344 340 337 338 335 334 342 344 346 342 346 352 351 346 348 345 347 350 354 348
105 107 111 120 125 117 111 115 140 167 174 166 161 157 158 172 174 148 160 171 165 161 152 144 135 113 288 243 203 245 253 329 315 313 342 18 68 80 96 101 107 96 85 80 87 84 81 68 77 65 50 62 52 43 43 36 24 19 19 17 3 356 355 347 349 342 342 342 339 339 340 340 343 347 350 350 348 349 349 349 351 349 352 354 353
132 137 144 145 128 117 123 133 146 147 139 147 153 158 160 145 168 156 162 170 161 153 155 167 173 174 173 176 114 90 85 43 40 50 62 52 53 83 93 103 100 100 102 92 93 96 98 97 75 75 55 63 61 47 49 35 31 32 23 6 6 4 356 354 351 348 343 339 340 341 339 339 339 344 347 353 350 350 347 352 354 351 349 354 359
127 153 149 129 136 148 148 140 139 140 156 156 160 157 158 170 158 148 150 153 151 150 160 164 168 175 180 137 52 340 43 49 42 100 106 83 66 78 97 97 99 93 88 102 106 101 99 88 79 77 68 63 63 50 47 39 38 37 25 16 1 356 0 358 352 346 345 344 340 340 340 339 337 341 341 346 353 348 348 347 353 355 353 350 350
134 132 129 126 134 138 146 145 153 154 166 158 161 165 158 166 166 154 151 145 138 150 156 166 166 154 142 114 118 100 132 192 173 152 132 108 95 75 81 84 75 83 96 99 109 114 105 96 90 83 79 71 64 55 41 39 37 34 34 19 11 1 357 350 348 346 344 336 338 339 342 340 336 338 341 352 348 345 346 348 348 350 348 349 348
133 134 122 127 131 121 115 107 117 152 141 136 128 134 150 150 140 131 125 124 127 143 151 147 136 145 150 136 131 86 123 171 148 140 129 118 109 97 88 92 95 85 84 100 112 114 113 107 97 97 89 83 69 59 45 40 30 32 26 27 14 6 351 349 347 347 343 342 342 340 340 339 335 344 351 345 343 344 345 344 350 352 354 355 355
123 119 121 127 124 118 117 115 126 119 99 94 96 113 113 135 140 136 136 135 140 141 141 142 153 156 150 142 130 139 193 130 114 112 108 108 116 118 115 112 117 126 122 122 124 120 120 109 98 92 91 78 76 66 57 44 34 31 21 24 24 5 357 348 344 342 344 341 339 339 340 339 335 344 344 346 347 345 347 353 352 355 359 360 1
122 123 128 130 133 139 140 143 117 105 102 101 107 113 120 121 140 145 141 143 145 147 150 156 167 159 184 200 191 206 132 121 126 122 123 126 124 132 135 142 150 154 150 139 124 123 114 100 92 89 91 88 82 80 74 60 44 38 30 23 20 17 352 341 342 348 345 347 342 338 339 335 340 338 347 352 349 345 352 351 355 360 0 3 4
119 112 116 128 135 126 131 133 139 147 141 160 146 132 128 124 128 142 151 152 157 159 160 164 167 172 169 176 150 124 127 136 138 150 144 148 154 156 161 160 146 135 131 94 101 114 109 105 100 94 90 93 93 90 88 76 67 62 45 27 10 18 356 340 342 339 341 336 332 336 335 338 338 341 351 356 350 353 354 358 360 0 2 4 4
131 129 130 131 134 134 145 155 153 166 178 162 150 197 156 132 146 163 154 153 162 158 166 168 167 165 159 166 159 142 148 153 157 153 154 155 168 171 173 160 151 148 127 100 112 112 111 111 111 109 104 99 96 98 93 87 74 61 52 47 41 6 332 321 304 306 308 323 326 324 336 336 336 339 355 354 354 353 358 359 358 359 4 6 8
142 137 136 138 143 156 157 163 167 170 169 176 178 176 165 152 161 164 167 160 161 164 169 161 158 159 165 176 180 159 152 147 141 149 161 168 158 176 181 157 153 153 131 124 122 117 116 118 118 119 117 118 110 99 91 90 98 90 70 30 324 282 280 278 286 297 320 328 321 323 327 329 334 343 3 1 352 359 0 358 5 9 7 4 8
142 152 152 160 161 171 173 179 168 191 200 191 185 191 195 199 192 184 186 175 166 171 166 168 165 168 172 180 184 181 171 149 153 157 171 176 162 162 148 142 141 135 122 120 123 121 117 117 119 121 122 121 113 109 107 101 82 42 53 280 278 301 287 290 283 309 314 307 310 306 319 326 344 346 357 2 3 2 4 7 5 8 7 11 9
129 140 168 172 170 176 189 178 194 198 197 205 207 213 211 209 205 199 199 207 172 170 179 175 175 172 176 185 187 182 176 177 172 158 165 149 152 160 146 144 141 139 133 121 118 121 123 126 127 125 125 126 122 123 127 127 117 103 305 314 303 310 326 322 317 319 309 306 299 310 316 337 344 359 358 4 7 2 12 7 4 9 11 10 12
116 166 171 168 175 184 188 194 203 200 198 203 207 212 212 218 217 220 213 210 215 191 176 176 176 180 184 188 181 184 176 182 181 163 155 148 144 136 149 149 142 144 138 139 138 122 119 122 122 121 125 127 129 135 147 148 137 159 329 302 326 347 336 338 336 340 334 333 327 332 347 351 2 3 1 6 4 6 14 12 13 11 11 13 17
52 91 147 198 217 182 210 218 220 213 204 190 197 213 221 222 228 227 221 215 214 209 201 172 174 180 184 182 181 179 179 179 178 178 157 150 150 152 153 152 151 152 147 148 152 124 119 124 125 126 127 133 141 149 155 152 153 119 351 330 345 342 351 343 345 354 1 349 337 332 326 356 6 7 5 6 6 10 15 14 13 16 18 18 18
79 73 69 73 63 47 185 201 222 233 221 209 202 211 219 221 225 228 215 194 199 199 204 185 178 178 181 184 178 175 182 180 173 175 164 154 153 158 156 154 155 152 156 159 160 131 127 132 135 136 141 146 150 160 161 166 156 139 34 4 353 353 355 1 1 353 354 353 347 343 3 17 18 10 6 5 12 13 12 14 19 20 21 21 18